Location: Fornova de Taro
(44.7000°N, 10.1000°E)
Time: 05:35:47
(UTC+00:00)

USA 305 - Visible Passes

Search period start: 05 October 2022 00:00
Search period end: 15 October 2022 00:00
Orbit: 540 x 550 km, 54.0° (Epoch: 31 August)

Date Brightness Start Highest point End Pass type
(mag) Time Alt. Az. Time Alt. Az. Time Alt. Az.
05 Oct 5.6 02:09:29 16° NE 02:09:29 16° NE 02:10:28 10° NE visible
05 Oct 4.7 03:44:58 17° NW 03:46:48 22° N 03:50:03 10° NE visible
06 Oct 5.8 02:01:37 13° NE 02:01:37 13° NE 02:02:13 10° NE visible
06 Oct 4.7 03:37:05 18° NNW 03:38:41 22° N 03:41:56 10° NE visible
07 Oct 6.1 01:53:44 11° NE 01:53:44 11° NE 01:53:56 10° NE visible
07 Oct 4.6 03:29:12 19° NNW 03:30:33 22° N 03:33:49 10° ENE visible
08 Oct 4.6 03:21:18 21° NNW 03:22:21 23° N 03:25:39 10° ENE visible
09 Oct 4.6 03:13:23 23° N 03:14:08 24° N 03:17:30 10° ENE visible
09 Oct 3.3 04:50:01 10° NW 04:54:03 58° NNE 04:58:05 10° ESE visible
10 Oct 4.5 03:05:30 25° N 03:05:51 25° NNE 03:09:18 10° ENE visible
10 Oct 3.0 04:41:35 10° NW 04:45:41 70° NNE 04:49:45 10° ESE visible
11 Oct 4.5 02:57:38 27° NNE 02:57:38 27° NNE 03:01:04 10° ENE visible
11 Oct 2.8 04:33:08 10° NW 04:37:15 85° NE 04:41:21 10° SE visible
12 Oct 4.6 02:49:50 28° NE 02:49:50 28° NE 02:52:46 10° E visible
12 Oct 2.7 04:25:18 14° WNW 04:28:46 79° SW 04:32:51 10° SE visible
13 Oct 4.9 02:42:05 26° ENE 02:42:05 26° ENE 02:44:27 10° E visible
13 Oct 2.8 04:17:34 20° WNW 04:20:14 63° SW 04:24:16 10° SE visible
14 Oct 5.2 02:34:24 21° ENE 02:34:24 21° ENE 02:36:04 10° E visible
14 Oct 3.0 04:09:54 29° WNW 04:11:37 50° SW 04:15:34 10° SSE visible
